[[{"header":{"parameterUnit":"m.s-1","parameterCategory":1,"la1":30.2991,"la2":30.254,"lo1":-89.0895,"lo2":-89.0444,"dy":0.0017,"dx":0.0017,"nx":28,"ny":28,"refTime":"2024-06-24T09:00:00:Z","depth":0,"parameterNumber":2,"parameterNumberName":"U-component_of_WINDS"},"data":[0,0,0,0,0,0,0,0,0,0,0,0,0,0,0,0,0,0,0,0,0,0,0,0,0,0,0,0,0,0,0,0,0,0,0,0,0,0,0,0,0,0,0,0,0,0,0,0,0,0,0,0,0,0,0,0,0,0,2.2776,2.2778,0,2.292,2.2922,2.2924,2.2958,2.2957,2.2956,2.2955,2.3101,2.3106,2.311,0,0,0,0,0,0,0,0,0,0,0,0,0,2.2528,2.2532,2.2776,2.2778,2.278,2.292,2.2922,2.2924,2.2958,2.2957,2.2955,2.2954,2.3099,2.3105,2.3111,0,0,0,0,0,0,0,0,0,0,0,0,0,2.265,2.2533,2.2776,2.2813,2.2818,2.292,2.2922,2.2925,2.2958,2.2956,2.2955,2.2954,2.3098,2.3105,2.3112,2.3185,0,0,2.3134,2.3137,0,0,0,0,0,0,0,0,2.2643,2.2659,2.2806,2.2811,2.2817,2.292,2.2888,2.3012,2.2958,2.2905,2.2955,2.2953,2.3042,2.3053,2.3084,2.3192,2.3199,2.3134,2.3139,2.3142,2.3144,0,0,0,0,0,0,0,2.2634,2.2653,2.2833,2.2808,2.2815,2.2822,2.2838,2.2912,2.298,2.2909,2.2912,2.2929,2.3044,2.3077,2.3087,2.3201,2.3134,2.3141,2.3145,2.3148,2.3375,2.3377,0,0,0,0,0,0,2.262,2.2646,2.2829,2.2837,2.2724,2.2828,2.2846,2.2888,2.2979,2.2991,2.293,2.293,2.3065,2.3079,2.3093,2.3183,2.3142,2.3148,2.3153,2.3373,2.3376,2.3377,0,0,0,0,0,0,2.2614,2.2636,2.2823,2.2742,2.2767,2.2834,2.2881,2.2892,2.2924,2.2995,2.3007,2.2951,2.3064,2.3082,2.3162,2.3189,2.3152,2.3158,2.3371,2.3374,2.3376,2.3366,0,0,0,0,0,0,2.2607,2.2633,2.2663,2.2743,2.2771,2.289,2.2883,2.2895,2.2936,2.2938,2.3017,2.3029,2.3065,2.3151,2.3169,2.3198,2.3164,2.3369,2.3373,2.3376,2.3365,2.3368,2.3372,0,0,0,0,0,2.2598,2.2654,2.2664,2.2686,2.2809,2.2892,2.2908,2.2948,2.2938,2.2968,2.3013,2.3026,2.3183,2.3159,2.3179,2.3211,2.3368,2.3372,2.3375,2.3363,2.3368,2.3371,0,0,0,0,0,0,2.2575,2.2665,2.2677,2.2761,2.2819,2.2897,2.2936,2.2952,2.3012,2.3011,2.3058,2.3076,2.3152,2.319,2.3161,2.3287,2.3275,2.3283,2.3259,2.3264,2.3267,2.3256,2.317,0,0,0,0,0,2.258,2.264,2.2716,2.2782,2.2811,2.2868,2.2906,2.2932,2.2993,2.3017,2.3068,2.3126,2.3188,2.3228,2.329,2.3371,2.3388,2.3403,2.3406,2.3409,2.3415,2.3459,2.3466,2.339,2.339,2.339,0,0,2.2591,2.2647,2.2682,2.2779,2.2827,2.2887,2.2888,2.2952,2.2997,2.3026,2.3104,2.3143,2.3211,2.3291,2.3329,2.3325,2.3439,2.3414,2.3415,2.342,2.3463,2.347,2.3477,2.3393,2.3392,2.3392,0,0,2.264,2.269,2.275,2.2798,2.2869,2.2907,2.2921,2.2998,2.3025,2.3104,2.3127,2.318,2.3287,2.3334,2.3372,2.3438,2.3452,2.3457,2.3475,2.3517,2.3523,2.3528,2.355,2.3558,2.3463,2.3463,2.3463,0,2.2644,2.2736,2.2779,2.2842,2.2883,2.2913,2.2973,2.3017,2.3105,2.3132,2.3127,2.3261,2.3309,2.3399,2.3415,2.3446,2.3462,2.3448,2.3519,2.3524,2.353,2.3552,2.356,2.3463,2.3463,2.3463,2.3463,0,2.2736,2.28,2.284,2.2924,2.297,2.3031,2.3082,2.3124,2.3146,2.3183,2.3262,2.3321,2.3394,2.3418,2.344,2.3511,2.3506,2.3509,2.3499,2.3537,2.3557,2.3566,2.3463,2.3463,2.3463,2.3463,0,0,2.2775,2.2882,2.2895,2.2933,2.3014,2.3064,2.3126,2.3198,2.3231,2.3291,2.3343,2.3433,2.3435,2.3478,2.3506,2.3543,2.359,2.3542,2.3544,2.3547,2.367,2.3666,2.3675,2.36,2.3602,2.3603,2.3663,0,2.2833,2.2946,2.2986,2.3078,2.3136,2.3165,2.3219,2.3274,2.3311,2.3365,2.3406,2.3468,2.3468,2.3494,2.3532,2.3576,2.3615,2.3573,2.3648,2.365,2.3628,2.3686,2.3682,2.3736,2.3672,2.3674,2.3675,0,2.2916,2.2976,2.3074,2.3147,2.3173,2.3221,2.3289,2.3341,2.3403,2.3427,2.3475,2.35,2.3565,2.3551,2.364,2.361,2.3644,2.367,2.3673,2.368,2.3663,2.3693,2.3755,2.3762,2.3688,2.3687,2.3686,0,2.2932,2.3038,2.311,2.3142,2.3229,2.3261,2.3299,2.336,2.34,2.346,2.3486,2.3552,2.3588,2.3638,2.368,2.3666,2.3765,2.3755,2.3785,2.3784,2.3804,2.3802,2.387,2.3828,2.3828,2.3827,2.3827,0,2.2992,2.305,2.3118,2.3162,2.3228,2.3273,2.3337,2.3376,2.343,2.3482,2.3511,2.3558,2.3611,2.3666,2.3699,2.3766,2.3783,2.3803,2.3811,2.38,2.3797,2.3821,2.3818,2.383,2.3829,2.3829,2.3828,0,2.302,2.3069,2.3149,2.3224,2.3245,2.329,2.3354,2.3397,2.3436,2.35,2.3518,2.3578,2.3643,2.369,2.3774,2.3796,2.3868,2.3877,2.3847,2.385,2.3878,2.3874,2.3962,2.3976,2.3926,2.3926,2.3927,0,2.3054,2.31,2.3181,2.3217,2.3255,2.3314,2.3355,2.3401,2.3442,2.3516,2.355,2.3617,2.3673,2.3776,2.3826,2.389,2.3899,2.3926,2.3909,2.3896,2.3898,2.3894,2.3898,2.3928,2.3928,2.3928,2.3929,0,2.3109,2.3131,2.3189,2.3255,2.3303,2.3358,2.3413,2.3441,2.3496,2.3541,2.3608,2.3651,2.3737,2.3803,2.3871,2.3909,2.3928,2.3934,2.3944,2.3932,2.3912,2.3922,2.3852,2.3931,2.3931,2.3931,2.3931,2.393,2.3141,2.3182,2.3245,2.3308,2.3354,2.3405,2.3449,2.3492,2.3549,2.3622,2.3646,2.3715,2.3775,2.387,2.3908,2.3962,2.3961,2.3976,2.398,2.3982,2.3981,2.3905,2.3975,2.3975,2.3975,2.3975,2.3975,0,2.3196,2.3238,2.3296,2.3371,2.3421,2.3435,2.3496,2.3536,2.3596,2.3651,2.3706,2.3782,2.3845,2.3901,2.3966,2.3999,2.4009,2.4014,2.4012,2.402,2.3979,2.3963,2.4005,2.4005,2.4005,2.4005,2.4005,2.4005,2.323,2.33,2.3329,2.3421,2.3463,2.3531,2.3564,2.361,2.3654,2.3738,2.3791,2.3827,2.3881,2.3951,2.401,2.4024,2.4046,2.405,2.4066,2.4026,2.4023,2.4019,2.4004,2.4055,2.4055,2.4102,2.4103,2.4103]},{"header":{"parameterUnit":"m.s-1","parameterCategory":1,"la1":30.2991,"la2":30.254,"lo1":-89.0895,"lo2":-89.0444,"dy":0.0017,"dx":0.0017,"nx":28,"ny":28,"refTime":"2024-06-24T09:00:00:Z","depth":0,"parameterNumber":3,"parameterNumberName":"V-component_of_WINDS"},"data":[0,0,0,0,0,0,0,0,0,0,0,0,0,0,0,0,0,0,0,0,0,0,0,0,0,0,0,0,0,0,0,0,0,0,0,0,0,0,0,0,0,0,0,0,0,0,0,0,0,0,0,0,0,0,0,0,0,0,4.6313,4.6313,0,4.6333,4.6333,4.6333,4.6266,4.6264,4.6262,4.626,4.6277,4.6279,4.6281,0,0,0,0,0,0,0,0,0,0,0,0,0,4.6214,4.6216,4.6313,4.6313,4.6314,4.6333,4.6333,4.6333,4.6266,4.6263,4.6261,4.6259,4.6276,4.6279,4.6282,0,0,0,0,0,0,0,0,0,0,0,0,0,4.6248,4.6217,4.6313,4.6282,4.628,4.6333,4.6333,4.6333,4.6266,4.6263,4.626,4.6258,4.6275,4.6278,4.6282,4.6364,0,0,4.6293,4.6294,0,0,0,0,0,0,0,0,4.6246,4.6251,4.6287,4.6285,4.6282,4.6294,4.6304,4.6344,4.6267,4.6271,4.626,4.6256,4.6285,4.6287,4.6297,4.6365,4.6366,4.6293,4.6295,4.6297,4.6298,0,0,0,0,0,0,0,4.6244,4.625,4.6321,4.6287,4.6284,4.6266,4.6268,4.6311,4.6295,4.6271,4.6266,4.6269,4.6283,4.6294,4.6297,4.6366,4.6293,4.6296,4.6298,4.63,4.6501,4.6504,0,0,0,0,0,0,4.6246,4.6249,4.632,4.6321,4.6256,4.6271,4.6272,4.6293,4.6294,4.6291,4.6272,4.6266,4.629,4.6293,4.6298,4.6393,4.6297,4.63,4.6302,4.6498,4.6501,4.6505,0,0,0,0,0,0,4.6244,4.6253,4.6319,4.6284,4.6291,4.6276,4.6299,4.6295,4.6306,4.6295,4.6291,4.6287,4.6287,4.6293,4.6348,4.6393,4.6301,4.6305,4.6494,4.6499,4.6503,4.6585,0,0,0,0,0,0,4.6241,4.6252,4.6285,4.6285,4.6293,4.6371,4.6302,4.6297,4.6313,4.6305,4.6308,4.6306,4.6285,4.6343,4.6352,4.6396,4.6307,4.649,4.6496,4.6502,4.6579,4.6593,4.6604,0,0,0,0,0,4.6238,4.6307,4.6287,4.6295,4.6333,4.6374,4.6378,4.6354,4.6317,4.6348,4.6341,4.6305,4.6387,4.6349,4.6358,4.6404,4.6487,4.6494,4.6501,4.6573,4.659,4.6604,0,0,0,0,0,0,4.6311,4.6306,4.6284,4.6355,4.6365,4.6362,4.6401,4.6373,4.6394,4.6386,4.6354,4.6356,4.6416,4.6416,4.6374,4.6483,4.643,4.6439,4.6482,4.6497,4.651,4.6508,4.631,0,0,0,0,0,4.6335,4.637,4.6363,4.6426,4.6433,4.6416,4.6433,4.6414,4.6423,4.6427,4.6423,4.6433,4.646,4.6479,4.6504,4.6578,4.6577,4.6614,4.6627,4.6638,4.6646,4.6684,4.6701,4.6529,4.6529,4.6529,0,0,4.6386,4.6388,4.6411,4.6441,4.6447,4.6482,4.642,4.646,4.6486,4.6432,4.6485,4.6483,4.6491,4.6556,4.6585,4.6558,4.6693,4.6647,4.6656,4.6658,4.6694,4.671,4.6724,4.6534,4.6533,4.6532,0,0,4.6496,4.6501,4.6554,4.6561,4.6571,4.6559,4.6572,4.6573,4.657,4.6622,4.6583,4.6612,4.666,4.6667,4.6677,4.679,4.6758,4.6799,4.6865,4.6903,4.6917,4.6929,4.6968,4.6982,4.6807,4.6807,4.6807,0,4.6557,4.661,4.6584,4.6627,4.6641,4.6595,4.6647,4.6655,4.6672,4.6682,4.6652,4.6711,4.6714,4.6779,4.6807,4.6817,4.6829,4.6798,4.6917,4.6929,4.6939,4.6976,4.6991,4.6812,4.6811,4.6811,4.6811,0,4.6684,4.6721,4.6762,4.6781,4.6799,4.6846,4.6827,4.6848,4.6828,4.6819,4.6872,4.6873,4.6897,4.6911,4.6891,4.6974,4.6957,4.6923,4.6868,4.6961,4.6995,4.7009,4.6819,4.6817,4.6816,4.6815,0,0,4.684,4.6844,4.6859,4.6867,4.6874,4.6901,4.6946,4.697,4.6989,4.7002,4.7038,4.708,4.7048,4.7059,4.7039,4.7073,4.716,4.7034,4.7034,4.7057,4.725,4.7276,4.7292,4.714,4.7142,4.7144,4.7249,0,4.6948,4.7025,4.7003,4.708,4.7113,4.707,4.7109,4.7117,4.711,4.7136,4.7127,4.7157,4.7113,4.712,4.7151,4.7143,4.7199,4.7135,4.7171,4.7173,4.717,4.731,4.7337,4.7436,4.7263,4.7265,4.7266,0,4.7083,4.7102,4.7183,4.7184,4.7197,4.7232,4.7252,4.7278,4.7286,4.7278,4.7291,4.7264,4.7307,4.7253,4.7311,4.7268,4.7281,4.728,4.7283,4.7284,4.7225,4.7315,4.7468,4.7482,4.7287,4.7286,4.7284,0,4.7188,4.7234,4.7287,4.7295,4.7298,4.7324,4.7326,4.7331,4.7346,4.7363,4.7373,4.7394,4.7406,4.7423,4.7402,4.7365,4.7463,4.7407,4.7456,4.7457,4.7478,4.7477,4.7634,4.7489,4.7489,4.7488,4.7488,0,4.7309,4.736,4.7334,4.7367,4.7422,4.7396,4.7451,4.7448,4.7453,4.7484,4.7448,4.7477,4.7449,4.7475,4.7459,4.7509,4.7515,4.7509,4.7504,4.7511,4.7512,4.7519,4.7511,4.7492,4.7491,4.7491,4.749,0,4.7435,4.742,4.7476,4.7474,4.7475,4.7515,4.7513,4.7543,4.7533,4.7572,4.758,4.7565,4.7594,4.7576,4.7605,4.7594,4.7659,4.7645,4.7657,4.7652,4.7702,4.7697,4.7869,4.7889,4.7732,4.7733,4.7735,0,4.7513,4.7551,4.7553,4.7572,4.7577,4.7607,4.7622,4.7598,4.7616,4.7627,4.7655,4.7682,4.7702,4.775,4.7741,4.7764,4.7749,4.7808,4.7752,4.7758,4.7749,4.7746,4.7749,4.7818,4.782,4.7822,4.7823,0,4.7653,4.7643,4.7668,4.769,4.771,4.7726,4.7739,4.7756,4.7731,4.7753,4.7783,4.7798,4.7828,4.7855,4.7873,4.7874,4.7844,4.7841,4.7853,4.7861,4.7866,4.7863,4.7686,4.7837,4.7835,4.7834,4.7834,4.7833,4.7756,4.7788,4.7794,4.7822,4.783,4.7842,4.787,4.7864,4.7889,4.7912,4.7896,4.7931,4.7937,4.7959,4.7964,4.799,4.7966,4.7984,4.7989,4.7993,4.8,4.7863,4.7993,4.7993,4.7993,4.7992,4.7992,0,4.7893,4.7895,4.7921,4.7941,4.7963,4.7934,4.7946,4.7966,4.7998,4.8006,4.8027,4.8061,4.8086,4.8079,4.8101,4.8124,4.8111,4.813,4.8128,4.8128,4.802,4.8007,4.8141,4.8141,4.8141,4.8141,4.8141,4.8141,4.7967,4.8018,4.8009,4.8063,4.8065,4.8099,4.8109,4.812,4.8126,4.8166,4.8187,4.8183,4.8185,4.8207,4.8228,4.8226,4.8235,4.826,4.8252,4.8151,4.8136,4.8122,4.8109,4.8262,4.8262,4.8357,4.8358,4.8359]}]]